Flag for Switzerland Weather past 2 weeks in Biel, Switzerland

Now
32 °F

Chilly.


Feels Like: 22 °F
Forecast: 25 / 35 °F
Wind: 14 mph from West

Location: Grenchen

Current Time: Feb 2, 2015 at 12:11:14 AM

Latest Report: Feb 1, 2015 at 11:00 PM


Visibility: N/A

Pressure: 29.59 "Hg

Humidity: 95%

Dew point: 30 °F

Location of BielLocation

Historic Weather in Biel — Graph

°F

Biel temperature yesterday

Maximum temperature yesterday: 35 °F (at 3:00 PM)
Minimum temperature yesterday: 29 °F (at 2:00 AM)
Average temperature yesterday: 32 °F

Past Weeks' High & Low Weather Summary

 TemperatureHumidityPressure
High37 °F (Jan 27, 4:00 PM)100% (Jan 18, 5:00 AM)30.49 "Hg (Jan 18, 5:00 AM)
Low22 °F (Jan 28, 5:00 AM)63% (Jan 25, 1:00 PM)28.91 "Hg (Jan 30, 12:00 AM)
Average32 °F92%29.91 "Hg
* Reported Jan 17 10:00 PM — Feb 1 10:00 PM, Biel, Weather by CustomWeather, © 2014

Note: Actual official high and low records may vary slightly from our data, if they occured in-between our weather recording intervals... More about our weather records

Advertising

Biel weather history for previous 24 hours

 ConditionsComfort  
Time TempWeatherWind HumidityBarometerVisibility
10:00 PM
Feb 1
32 °FChilly.8 mph95%29.60 "HgN/A
9:00 PM31 °FChilly.7 mph94%29.60 "HgN/A
8:00 PM31 °FChilly.7 mph92%29.60 "HgN/A
7:00 PM33 °FChilly.9 mph77%29.57 "HgN/A
6:00 PM34 °FChilly.13 mph70%29.55 "HgN/A
5:00 PM34 °FChilly.13 mph81%29.50 "HgN/A
4:00 PM34 °FChilly.10 mph87%29.47 "HgN/A
3:00 PM35 °FChilly.14 mph80%29.44 "HgN/A
2:00 PM33 °FChilly.12 mph97%29.44 "HgN/A
1:00 PM33 °FChilly.10 mph98%29.44 "HgN/A
12:00 PM31 °FChilly.3 mph98%29.44 "HgN/A
11:00 AM33 °FChilly.7 mph81%29.41 "HgN/A
10:00 AM33 °FChilly.6 mph77%29.38 "HgN/A
9:00 AM32 °FChilly.7 mph97%29.35 "HgN/A
8:00 AM31 °FChilly.8 mph99%29.35 "HgN/A
7:00 AM32 °FChilly.10 mph96%29.32 "HgN/A
6:00 AM32 °FChilly.12 mph96%29.29 "HgN/A
5:00 AM32 °FChilly.10 mph98%29.29 "HgN/A
4:00 AM32 °FChilly.12 mph98%29.26 "HgN/A
3:00 AM30 °FChilly.2 mph98%29.26 "HgN/A
2:00 AM29 °FChilly.1 mph98%29.29 "HgN/A
1:00 AM30 °FChilly.2 mph97%29.29 "HgN/A
12:00 AM32 °FChilly.6 mph97%29.26 "HgN/A
Weather by CustomWeather, © 2014

See weather overviewHow to use our weather pages